Temperature
19 19 19 19 19 19 19 18 18 18 18 18 17 17 17 17 17 17 17 17 17 16 16 16 16 16 16 16 16 16 16 16 16 15 15 15 15 15 15 14 14 14 14
19 19 19 19 19 18 18 18 18 18 18 17 17 17 17 17 17 17 17 17 16 16 16 16 16 16 16 16 16 16 16 16 16 15 15 14 14 14 14 14 14 14 14
19 19 19 19 18 18 18 18 18 18 17 17 17 17 17 17 17 17 16 16 16 16 16 16 16 16 16 16 16 16 15 15 15 15 14 14 14 14 14 13 13 13 13
19 19 19 19 18 18 18 18 18 17 17 17 17 17 17 16 16 16 16 16 16 16 16 16 16 16 16 16 15 15 15 15 15 14 14 14 14 14 13 13 13 13 13
19 19 19 18 18 18 18 18 18 17 17 17 17 16 16 16 16 16 16 16 16 16 16 16 15 15 15 15 15 15 15 14 14 14 14 14 13 13 13 13 13 13 12
19 19 18 18 18 18 18 17 17 17 17 17 16 16 16 16 16 16 16 16 16 16 15 15 15 15 15 15 15 14 14 14 14 14 13 13 13 13 13 13 12 12 12
19 19 18 18 18 17 17 17 17 17 17 16 16 16 16 16 16 16 16 15 15 15 15 15 14 14 14 14 14 14 14 14 14 14 13 13 13 13 13 13 12 12 12
18 18 18 18 17 17 17 17 17 16 16 16 16 15 16 16 16 15 15 15 15 15 15 14 14 14 14 14 14 14 14 13 13 13 13 13 13 13 13 13 12 12 12
18 18 18 18 17 17 17 17 17 16 16 16 15 15 15 15 15 15 15 15 14 14 14 14 14 14 14 14 13 13 13 13 13 13 13 13 13 12 12 12 12 12 12
18 18 18 17 17 17 17 17 16 16 16 15 15 15 15 15 15 15 15 14 14 14 14 14 14 14 14 14 13 13 13 13 13 13 13 12 12 12 12 12 12 12 11
18 18 18 17 17 17 17 16 16 16 16 15 15 15 15 15 15 15 14 14 14 14 13 14 14 14 14 13 13 13 13 13 13 12 12 12 12 12 12 12 12 12 11
17 17 17 17 17 17 16 16 16 15 15 15 15 15 15 15 14 14 14 14 14 14 13 13 13 13 13 13 13 13 13 13 12 12 12 12 12 12 12 12 12 12 11
17 17 17 17 17 17 16 16 16 15 15 15 15 14 14 14 14 14 14 14 14 13 13 13 13 13 13 13 13 13 12 12 12 12 12 12 12 12 12 12 11 11 11
16 16 16 16 17 16 16 16 15 15 15 14 14 14 14 14 14 14 14 13 13 13 13 13 13 13 13 13 13 12 12 12 12 12 12 12 12 12 12 11 11 11 11
16 16 16 16 16 16 16 15 15 15 15 15 15 14 14 14 14 14 14 13 13 13 13 12 12 12 12 12 12 12 12 12 12 12 12 12 12 12 11 11 11 11 11
16 16 16 16 16 16 15 15 15 15 15 15 15 14 14 14 14 14 14 13 13 13 12 12 12 12 12 12 12 12 12 12 12 12 12 12 12 12 11 11 11 11 11
15 15 15 16 16 15 15 15 15 15 14 14 14 14 14 14 14 14 13 13 13 13 12 12 12 12 12 12 12 12 12 12 12 12 12 12 11 11 11 11 11 11 11
15 15 15 15 15 15 15 15 15 14 14 14 14 14 14 13 13 13 13 13 13 12 12 12 12 12 12 12 12 12 12 12 12 12 12 11 11 11 11 11 11 11 10
15 15 15 15 15 15 14 14 14 14 14 14 14 13 13 13 13 13 13 12 12 12 12 12 12 12 12 12 12 12 12 12 11 11 11 11 11 11 11 11 11 10 10
15 15 15 15 14 14 14 14 14 14 14 14 14 13 13 13 13 12 12 12 12 12 12 12 11 11 11 12 12 11 11 11 11 11 11 11 11 11 11 11 10 10 10
14 14 14 14 14 14 14 14 14 14 13 13 13 13 13 13 12 12 12 12 12 12 12 12 11 11 11 11 11 11 11 11 11 11 11 11 11 10 10 10 10 10 10
14 14 14 14 14 14 14 13 13 13 13 13 13 13 13 12 12 12 12 12 12 11 11 11 11 11 11 11 11 11 10 10 10 10 10 10 10 10 10 10 10 10 10
14 14 14 14 14 14 13 13 13 13 13 13 13 13 12 12 12 12 11 11 11 11 11 11 11 11 11 10 10 10 10 10 10 10 10 10 10 9 9 9 9 9 9
14 14 14 14 13 13 13 13 13 13 13 13 12 12 12 12 11 11 11 11 11 11 11 10 10 10 10 10 10 10 10 10 10 10 9 9 9 9 9 9 9 9 9
14 14 14 14 13 13 13 13 13 12 12 12 12 12 11 11 11 11 11 11 11 11 10 10 10 10 10 10 10 10 10 9 9 9 9 9 9 9 9 9 9 9 9
13 13 13 13 13 13 13 12 12 12 12 12 11 11 11 11 11 11 11 10 10 10 10 10 10 10 10 9 9 9 9 9 9 9 9 9 8 8 8 8 8 8 8
Wind_Speed
5 4 3 4 3 2 2 2 1 1 1 1 1 0 1 1 1 1 1 1 1 1 1 1 1 1 1 2 1 1 0 1 1 0 1 2 2 2 2 2 3 6 5
6 5 4 4 3 3 2 2 2 1 1 0 0 0 1 0 0 1 1 1 1 1 1 1 1 1 1 2 2 1 1 1 1 1 1 1 2 2 2 1 2 4 5
7 6 5 4 4 3 3 2 2 1 1 0 1 1 1 1 1 1 1 0 0 1 1 1 1 2 2 1 1 1 1 1 2 2 1 1 2 2 1 0 1 2 4
7 6 5 5 4 4 3 2 2 2 2 1 1 0 1 0 1 1 0 0 1 1 2 2 2 2 2 2 1 2 2 1 1 2 2 2 2 1 1 1 1 1 1
7 6 5 5 5 4 3 3 2 2 2 1 1 1 1 0 1 2 2 1 1 1 2 2 3 4 4 3 2 2 1 1 1 1 2 2 2 2 1 1 1 1 1
6 6 5 5 4 4 4 3 3 2 2 2 1 1 1 1 2 3 2 1 1 1 1 1 2 3 3 4 4 3 2 1 0 0 1 1 2 1 1 1 1 1 1
5 5 6 5 4 4 4 3 3 3 2 2 2 1 1 1 1 2 2 1 0 1 1 0 0 2 2 2 2 3 2 2 0 1 0 0 2 2 2 2 1 1 1
5 5 5 5 5 4 4 4 3 3 2 2 2 2 2 2 2 1 1 2 2 2 1 1 1 2 2 1 0 2 2 1 1 1 0 0 1 1 2 2 2 1 1
5 5 5 5 5 4 4 4 3 3 3 3 3 3 2 2 2 2 3 3 2 2 2 1 1 3 2 1 1 1 1 2 2 3 2 2 3 3 2 1 1 2 1
3 4 4 4 4 5 5 4 4 3 4 3 3 3 3 3 4 4 4 4 3 3 3 3 2 3 3 1 1 1 2 1 1 2 2 3 4 4 4 3 2 2 1
3 3 3 4 4 5 4 4 4 4 4 4 4 3 3 4 5 5 3 3 3 3 3 3 3 5 3 1 1 2 2 3 3 3 3 3 3 2 2 2 2 2 1
2 2 2 3 3 3 3 3 3 4 5 4 3 3 3 3 4 5 5 4 4 3 2 1 3 6 4 3 3 3 3 3 4 3 3 3 3 3 3 3 3 2 3
1 2 2 2 2 3 3 4 4 4 4 4 4 5 4 3 4 6 7 6 5 3 2 1 5 7 5 5 7 6 4 3 4 4 3 3 3 3 3 2 3 2 3
2 2 2 2 3 3 3 4 4 4 4 4 4 4 3 3 3 4 5 5 5 5 4 3 6 7 6 5 5 5 5 5 5 4 3 2 3 3 3 3 3 3 3
2 2 3 4 3 2 2 2 3 2 3 3 3 3 3 3 4 5 4 4 4 4 3 3 4 4 5 5 5 5 6 5 6 5 4 3 3 3 3 3 3 2 3
3 4 4 4 3 3 4 3 1 2 1 2 3 3 2 2 3 4 4 4 4 5 4 5 5 6 6 6 6 6 6 6 5 5 4 4 3 3 3 3 3 3 3
4 5 5 4 4 4 5 5 3 1 1 1 3 4 4 4 4 4 4 4 4 5 5 6 6 6 6 6 5 5 5 5 5 4 4 4 4 4 3 3 3 3 3
6 6 5 5 4 5 5 4 4 4 4 3 3 4 5 6 5 5 4 2 2 4 6 6 6 6 5 5 5 4 4 3 4 4 4 4 4 3 3 3 3 4 3
5 4 3 4 3 3 3 3 4 4 3 3 2 2 3 3 3 3 4 3 5 5 5 5 5 5 5 4 4 4 3 3 3 3 3 4 4 4 4 4 4 5 4
4 4 4 4 4 3 3 3 3 3 3 3 3 3 3 3 2 3 4 4 5 5 5 5 4 4 3 3 3 3 4 3 3 4 4 4 4 4 4 4 4 4 4
5 4 5 5 3 3 3 4 4 3 3 3 2 3 5 4 4 4 4 5 5 5 4 4 3 3 3 3 4 4 4 4 4 4 4 3 4 4 4 4 4 5 4
4 4 4 4 3 3 3 4 4 4 3 3 3 2 6 5 4 3 4 4 4 4 4 3 4 3 3 3 3 3 3 3 3 3 3 3 3 3 4 4 3 3 3
5 5 4 3 3 3 4 4 4 4 4 4 3 2 3 4 3 3 3 3 3 4 3 3 3 3 3 2 2 2 3 3 2 2 2 3 3 4 4 3 3 3 4
5 4 4 3 3 3 4 3 3 4 4 4 3 2 3 3 3 3 4 4 4 3 3 3 3 4 3 2 3 2 2 2 2 2 3 4 4 3 3 3 4 4 4
4 3 3 3 3 3 3 3 3 3 3 3 2 2 3 3 3 3 3 3 4 3 4 3 3 4 4 3 2 1 1 2 1 1 2 3 4 5 4 4 4 4 3
3 2 2 1 2 2 2 2 2 2 3 2 2 3 3 3 3 3 3 3 4 4 4 4 4 4 2 2 2 2 2 2 2 1 2 3 4 4 4 4 4 4 4
Wind_Direction
171 159 150 157 154 129 120 98 86 52 53 91 131 149 164 221 215 232 250 247 249 266 289 317 334 339 333 320 325 329 305 153 184 117 107 101 86 76 80 94 126 124 124
163 154 154 144 142 143 137 125 116 100 74 43 213 257 246 250 230 235 256 276 285 318 354 20 356 342 7 347 355 4 19 112 149 148 116 108 106 109 104 98 110 116 120
159 156 155 153 150 141 130 121 116 121 119 208 197 214 257 286 277 255 243 265 52 40 37 42 28 24 20 2 8 11 19 82 121 139 151 118 108 96 97 72 105 123 134
158 160 162 163 155 146 143 143 143 143 146 143 99 16 232 358 322 312 76 61 84 77 68 57 47 43 25 356 25 40 43 57 118 148 155 141 130 123 125 159 128 127 127
159 164 161 158 152 153 157 161 160 171 175 150 179 221 213 167 0 28 16 72 72 87 85 88 83 80 69 49 51 46 49 77 139 162 156 152 142 147 159 198 153 145 133
155 156 155 157 160 164 165 170 172 177 180 180 203 215 268 295 47 44 30 19 81 92 85 110 144 119 107 100 91 79 68 88 142 179 170 166 151 149 166 203 186 166 167
157 160 161 161 168 180 186 178 182 191 192 198 216 203 162 118 72 60 43 306 210 181 179 226 262 104 102 101 147 158 122 99 101 258 261 168 165 177 195 219 216 207 180
168 168 167 167 172 181 190 196 198 198 207 215 221 220 201 192 188 182 289 246 222 192 202 183 121 103 59 38 220 154 153 155 187 153 86 259 162 191 201 212 208 193 171
177 176 179 180 184 188 200 203 200 202 211 219 219 218 220 180 202 225 261 243 217 196 200 166 143 122 102 25 278 191 180 186 159 141 152 191 190 202 202 198 199 183 203
177 179 181 181 199 204 202 201 203 207 215 227 225 213 212 188 203 222 247 250 226 209 189 160 137 144 159 143 244 244 237 254 220 184 196 212 203 196 202 199 208 213 199
159 168 180 187 202 210 200 199 201 208 215 226 224 214 206 194 190 207 219 255 264 248 219 190 169 159 156 181 251 250 233 254 249 232 212 199 190 178 181 189 197 199 213
171 187 191 189 207 199 192 209 214 222 224 221 221 227 215 194 189 209 216 234 283 279 267 204 165 178 194 216 234 244 269 272 249 236 217 199 191 189 191 188 186 186 193
174 202 195 199 206 190 192 203 211 221 227 225 223 230 226 201 186 199 214 230 249 266 283 198 187 197 214 231 231 230 242 249 248 243 231 207 191 187 183 176 179 186 201
189 213 208 206 218 200 203 212 220 222 229 231 229 234 228 213 197 198 214 225 232 239 246 221 202 212 231 241 228 226 225 233 237 239 231 212 189 179 184 187 192 192 195
212 209 222 227 222 212 222 245 241 239 229 228 240 239 244 243 230 207 212 220 230 233 227 228 222 218 221 225 223 221 221 223 230 232 229 216 200 196 199 195 198 211 213
228 229 234 231 221 212 212 232 309 257 210 194 195 193 241 234 198 185 198 214 222 212 210 232 235 232 229 227 225 222 220 223 224 219 216 213 212 212 209 201 194 207 217
235 238 242 239 232 222 221 220 222 239 280 253 221 198 199 209 201 195 195 204 215 192 214 234 238 238 243 240 231 230 226 219 213 216 218 216 215 215 210 208 206 211 223
243 242 239 237 233 229 222 223 221 220 222 234 241 209 196 202 203 199 186 169 221 215 231 239 241 242 242 243 239 237 232 220 210 211 217 222 220 218 215 214 211 216 224
248 247 244 252 242 236 231 229 232 231 231 217 194 188 197 191 202 206 184 225 238 236 236 240 243 243 243 239 235 228 225 223 223 218 217 220 220 220 220 217 216 214 220
242 239 234 246 250 239 240 241 236 234 239 232 213 193 172 183 206 207 211 233 245 248 247 246 251 260 252 239 231 228 224 221 219 222 222 221 224 223 221 221 226 227 222
251 234 222 236 240 232 237 245 248 249 253 256 238 190 180 210 224 222 218 223 236 247 246 250 245 249 257 243 232 226 226 227 221 223 223 225 229 228 229 225 224 229 231
262 249 230 232 229 224 237 242 241 241 247 255 256 209 190 217 231 234 238 235 241 255 255 245 244 239 241 248 243 235 231 234 229 228 230 226 230 237 240 236 230 228 228
258 254 242 236 233 223 236 245 246 245 245 247 243 214 203 230 239 235 233 233 234 240 249 250 255 258 245 232 233 221 227 238 238 230 238 236 236 237 237 238 238 237 240
255 255 246 234 235 238 244 250 252 260 262 257 249 236 225 231 243 240 245 246 239 241 243 241 237 244 248 233 222 201 205 221 227 219 225 241 247 246 239 237 238 237 235
259 254 246 237 238 244 250 258 261 268 275 275 261 251 242 229 235 241 244 243 242 235 233 238 243 243 244 231 209 191 142 146 159 209 223 241 245 243 240 240 239 239 229
279 282 269 264 257 257 254 259 269 273 276 268 253 245 243 243 238 239 243 249 250 242 237 237 237 237 246 200 168 150 129 121 150 242 243 248 251 250 246 245 246 243 231
Height
1516 1517 1519 1520 1521 1521 1522 1522 1522 1523 1523 1523 1524 1524 1524 1524 1524 1524 1524 1524 1524 1524 1524 1523 1523 1523 1523 1523 1523 1523 1523 1523 1523 1523 1524 1524 1523 1523 1523 1522 1522 1522 1522
1514 1515 1517 1518 1519 1520 1520 1520 1520 1521 1521 1522 1522 1522 1522 1523 1523 1523 1523 1523 1522 1522 1522 1522 1522 1521 1521 1521 1521 1521 1521 1521 1521 1521 1522 1522 1521 1521 1521 1521 1521 1520 1520
1513 1514 1515 1517 1517 1518 1518 1518 1519 1519 1519 1520 1520 1520 1520 1520 1521 1521 1521 1521 1521 1520 1520 1520 1520 1520 1519 1519 1519 1519 1519 1519 1519 1520 1520 1520 1520 1520 1520 1520 1520 1520 1519
1511 1512 1513 1514 1515 1516 1516 1517 1517 1518 1518 1518 1518 1518 1518 1518 1519 1519 1519 1519 1519 1519 1518 1518 1518 1518 1518 1517 1517 1517 1517 1518 1518 1518 1519 1519 1519 1519 1519 1519 1519 1519 1519
1509 1510 1511 1512 1513 1514 1515 1515 1516 1516 1517 1517 1517 1517 1517 1516 1517 1516 1517 1517 1517 1517 1517 1517 1517 1516 1516 1516 1516 1516 1516 1516 1516 1517 1517 1517 1517 1517 1517 1517 1517 1518 1518
1506 1508 1509 1510 1511 1512 1513 1514 1514 1515 1515 1515 1515 1515 1515 1515 1515 1515 1515 1515 1515 1515 1515 1515 1515 1515 1515 1514 1514 1514 1515 1515 1515 1515 1515 1515 1515 1515 1516 1516 1516 1516 1516
1504 1506 1507 1508 1509 1510 1511 1512 1512 1513 1513 1513 1513 1513 1513 1513 1513 1513 1513 1513 1513 1513 1513 1513 1513 1513 1513 1513 1513 1513 1513 1513 1514 1514 1513 1513 1513 1513 1514 1514 1515 1515 1515
1503 1504 1505 1506 1507 1508 1509 1509 1510 1510 1511 1511 1511 1511 1511 1510 1511 1511 1511 1511 1511 1511 1511 1511 1511 1511 1511 1512 1512 1512 1511 1511 1512 1512 1512 1512 1512 1512 1512 1513 1513 1514 1514
1501 1501 1503 1504 1504 1506 1507 1507 1508 1508 1508 1508 1509 1509 1509 1509 1509 1509 1509 1509 1509 1509 1509 1509 1509 1509 1509 1510 1510 1510 1510 1510 1510 1510 1510 1510 1510 1510 1510 1511 1511 1511 1511
1498 1499 1500 1501 1502 1503 1504 1505 1505 1505 1506 1506 1506 1506 1506 1506 1506 1506 1507 1507 1507 1507 1507 1507 1507 1507 1507 1507 1507 1507 1508 1508 1508 1508 1508 1508 1508 1508 1508 1509 1509 1509 1509
1496 1497 1498 1498 1499 1500 1501 1502 1502 1503 1503 1503 1504 1503 1504 1503 1503 1504 1504 1504 1504 1504 1504 1504 1504 1504 1504 1504 1504 1505 1505 1505 1506 1506 1506 1506 1506 1506 1506 1506 1507 1507 1507
1494 1495 1495 1496 1497 1497 1498 1498 1499 1500 1500 1500 1501 1501 1501 1501 1501 1501 1501 1501 1502 1502 1502 1501 1501 1502 1502 1502 1502 1502 1502 1503 1503 1504 1504 1504 1504 1504 1504 1505 1505 1505 1505
1491 1492 1493 1493 1494 1495 1495 1496 1497 1497 1497 1497 1498 1498 1498 1497 1497 1497 1497 1498 1498 1498 1498 1498 1498 1498 1499 1499 1499 1499 1500 1500 1500 1501 1501 1501 1502 1502 1502 1503 1503 1503 1503
1488 1489 1490 1490 1491 1492 1493 1494 1494 1494 1495 1495 1495 1495 1495 1494 1493 1493 1493 1494 1494 1494 1495 1495 1495 1495 1495 1495 1495 1496 1496 1496 1497 1497 1498 1499 1499 1499 1500 1500 1500 1500 1500
1485 1486 1487 1487 1488 1489 1489 1490 1490 1490 1491 1491 1491 1491 1491 1491 1490 1490 1489 1489 1490 1490 1490 1491 1490 1491 1490 1491 1491 1491 1492 1492 1493 1494 1494 1495 1496 1496 1496 1497 1497 1498 1498
1482 1483 1484 1484 1484 1485 1485 1486 1486 1487 1487 1487 1487 1487 1487 1487 1487 1486 1486 1486 1486 1487 1487 1486 1486 1486 1486 1487 1487 1487 1488 1488 1489 1490 1491 1491 1492 1492 1493 1493 1494 1494 1494
1479 1480 1481 1481 1481 1481 1481 1482 1482 1483 1483 1482 1483 1482 1482 1482 1482 1482 1482 1482 1482 1483 1482 1482 1482 1482 1482 1483 1483 1483 1483 1484 1485 1486 1487 1487 1488 1488 1489 1490 1490 1490 1491
1477 1477 1477 1477 1477 1478 1478 1478 1479 1479 1478 1478 1478 1477 1478 1478 1478 1478 1478 1478 1478 1478 1478 1478 1478 1478 1478 1478 1478 1479 1479 1480 1480 1481 1482 1483 1484 1484 1485 1486 1486 1486 1487
1474 1474 1474 1474 1474 1475 1474 1475 1475 1475 1475 1475 1474 1473 1474 1474 1474 1474 1474 1474 1474 1474 1474 1474 1474 1474 1474 1474 1474 1474 1475 1475 1476 1477 1477 1478 1479 1480 1480 1481 1482 1482 1483
1470 1470 1470 1471 1472 1472 1472 1472 1472 1472 1472 1472 1471 1470 1470 1470 1470 1470 1470 1470 1470 1470 1470 1470 1470 1470 1470 1470 1470 1470 1470 1471 1472 1473 1473 1474 1475 1475 1476 1477 1478 1478 1478
1467 1467 1467 1468 1468 1468 1469 1469 1469 1469 1469 1469 1468 1467 1467 1467 1467 1467 1466 1466 1467 1466 1466 1466 1466 1465 1465 1465 1465 1465 1466 1466 1467 1468 1469 1469 1470 1471 1472 1473 1473 1474 1474
1464 1464 1464 1464 1465 1465 1465 1466 1466 1466 1466 1466 1465 1465 1464 1465 1465 1464 1464 1464 1463 1463 1463 1462 1462 1461 1461 1461 1461 1461 1461 1461 1463 1463 1464 1465 1466 1467 1467 1468 1469 1469 1470
1461 1461 1461 1461 1462 1462 1462 1463 1463 1463 1463 1463 1462 1462 1461 1461 1461 1461 1461 1460 1460 1459 1459 1459 1458 1457 1457 1457 1457 1457 1457 1457 1458 1459 1459 1460 1461 1462 1463 1463 1464 1465 1465
1458 1458 1458 1458 1459 1459 1459 1459 1460 1460 1459 1459 1459 1459 1458 1457 1457 1457 1457 1456 1456 1456 1456 1455 1454 1454 1453 1453 1453 1453 1453 1453 1454 1454 1454 1455 1456 1457 1458 1458 1459 1459 1460
1455 1455 1455 1456 1456 1456 1456 1456 1457 1457 1456 1456 1455 1455 1455 1454 1453 1453 1453 1452 1452 1452 1452 1451 1451 1450 1450 1450 1450 1450 1450 1449 1449 1449 1450 1450 1451 1452 1453 1453 1454 1455 1455
1453 1453 1453 1453 1453 1453 1453 1453 1453 1453 1453 1452 1452 1452 1451 1451 1450 1450 1449 1449 1449 1448 1448 1448 1447 1447 1447 1446 1446 1446 1446 1446 1445 1445 1445 1446 1447 1447 1448 1449 1450 1451 1451